Weather History for Beach, ND

Change the Weather History Date:

Saturday, October 13, 2012

  Actual Average (KGDV) Record (KGDV)
Temperature  
Mean Temperature 50 °F -  
Max Temperature 64 °F 56 °F 75 °F (1996)
Min Temperature 37 °F 33 °F 15 °F (2006)
Degree Days  
Heating Degree Days 14    
Moisture  
Dew Point 34 °F    
Average Humidity 61    
Maximum Humidity 93    
Minimum Humidity 30    
Precipitation  
Precipitation 0.00 in - - ()
Sea Level Pressure  
Sea Level Pressure 29.82 in    
Wind  
Wind Speed 7 mph (West)    
Max Wind Speed 14 mph    
Max Gust Speed 18 mph    
Visibility 10 miles    
Events Rain    
Averages and records for this station are not official NWS values.
T = Trace of Precipitation, MM = Missing Value Source: NWS Daily Summary

Daily Weather History Graph

Daily Weather History Graph

Search for Another Location

Airport:

Trip Planner

Search our weather history database for the weather conditions in past years. The results will help you decide how hot, cold, wet, or windy it might be!

Date:

Astronomy

Oct. 13, 2012 Rise Set
Actual Time 7:11 AM MDT 6:11 PM MDT
Civil Twilight 6:41 AM MDT 6:41 PM MDT
Nautical Twilight 6:06 AM MDT 7:17 PM MDT
Astronomical Twilight 5:30 AM MDT 7:52 PM MDT
Moon 4:58 AM MDT (10/13) 4:59 PM MDT (10/13)
Length of Visible Light 12h 00m
Length of Day
10h 59m
Waning Crescent, 4% of the Moon is Illuminated
Oct 13
Waning Crescent
Oct 15
New
Oct 21
First Quarter
Oct 29
Full
Nov 6
Last Quarter

Hourly Weather History & Observations

Time (MDT) Temp. Windchill Dew Point Humidity Pressure Visibility Wind Dir Wind Speed Gust Speed Precip Events Conditions
12:15 AM 37.4 °F 30.8 °F 32.0 °F 81% 29.67 in 10.0 mi South 9.2 mph - N/A   Clear
12:55 AM 39.2 °F 37.0 °F 32.0 °F 75% 29.67 in 10.0 mi SSE 3.5 mph - N/A   Clear
1:15 AM 37.4 °F 32.8 °F 32.0 °F 81% 29.67 in 10.0 mi South 5.8 mph - N/A   Clear
1:35 AM 39.2 °F 35.0 °F 32.0 °F 75% 29.68 in 10.0 mi SSE 5.8 mph - N/A   Partly Cloudy
1:55 AM 37.4 °F 32.8 °F 32.0 °F 81% 29.67 in 10.0 mi South 5.8 mph - N/A   Partly Cloudy
2:35 AM 37.4 °F 34.9 °F 32.0 °F 81% 29.68 in 10.0 mi SSE 3.5 mph - N/A Rain Light Rain
2:55 AM 39.2 °F 37.0 °F 32.0 °F 75% 29.68 in 10.0 mi SSW 3.5 mph - N/A   Partly Cloudy
3:15 AM 44.6 °F 38.4 °F 35.6 °F 71% 29.69 in 10.0 mi West 12.7 mph - N/A   Partly Cloudy
3:35 AM 46.4 °F 40.4 °F 35.6 °F 66% 29.69 in 10.0 mi West 13.8 mph - N/A   Partly Cloudy
4:35 AM 48.2 °F - 33.8 °F 58% 29.71 in 10.0 mi WNW 10.4 mph 18.4 mph N/A   Clear
4:55 AM 44.6 °F 40.7 °F 33.8 °F 66% 29.72 in 10.0 mi West 6.9 mph - N/A   Clear
5:15 AM 44.6 °F - 33.8 °F 66% 29.72 in 10.0 mi Calm Calm - N/A   Clear
5:35 AM 44.6 °F 43.1 °F 33.8 °F 66% 29.72 in 10.0 mi WSW 3.5 mph - N/A   Clear
5:55 AM 42.8 °F 40.1 °F 32.0 °F 66% 29.73 in 10.0 mi SSW 4.6 mph - N/A   Clear
6:15 AM 44.6 °F 42.2 °F 33.8 °F 66% 29.74 in 10.0 mi WSW 4.6 mph - N/A   Clear
6:35 AM 42.8 °F 40.1 °F 33.8 °F 70% 29.76 in 10.0 mi West 4.6 mph - N/A   Scattered Clouds
6:55 AM 37.4 °F - 32.0 °F 81% 29.76 in 10.0 mi Calm Calm - N/A   Partly Cloudy
7:15 AM 37.4 °F - 32.0 °F 81% 29.77 in 10.0 mi Calm Calm - N/A   Partly Cloudy
7:35 AM 41.0 °F 39.0 °F 33.8 °F 76% 29.78 in 10.0 mi West 3.5 mph - N/A   Partly Cloudy
7:55 AM 42.8 °F 40.1 °F 35.6 °F 76% 29.79 in 10.0 mi West 4.6 mph - N/A   Clear
8:15 AM 41.0 °F 37.1 °F 35.6 °F 81% 29.80 in 10.0 mi West 5.8 mph - N/A   Clear
8:35 AM 44.6 °F 42.2 °F 35.6 °F 71% 29.81 in 10.0 mi WSW 4.6 mph - N/A   Scattered Clouds
8:55 AM 46.4 °F 45.2 °F 35.6 °F 66% 29.81 in 10.0 mi West 3.5 mph - N/A   Partly Cloudy
9:15 AM 48.2 °F - 35.6 °F 62% 29.82 in 10.0 mi West 8.1 mph - N/A   Partly Cloudy
9:35 AM 53.6 °F - 35.6 °F 51% 29.82 in 10.0 mi WNW 10.4 mph - N/A   Partly Cloudy
9:55 AM 53.6 °F - 35.6 °F 51% 29.83 in 10.0 mi NW 12.7 mph - N/A   Clear
10:15 AM 55.4 °F - 35.6 °F 47% 29.83 in 10.0 mi NW 10.4 mph 16.1 mph N/A   Clear
10:35 AM 55.4 °F - 33.8 °F 44% 29.83 in 10.0 mi NW 12.7 mph - N/A   Clear
10:55 AM 57.2 °F - 33.8 °F 41% 29.83 in 10.0 mi WNW 11.5 mph - N/A   Clear
11:15 AM 57.2 °F - 33.8 °F 41% 29.83 in 10.0 mi NW 9.2 mph - N/A   Clear
11:35 AM 59.0 °F - 33.8 °F 39% 29.83 in 10.0 mi NW 11.5 mph - N/A   Clear
11:55 AM 60.8 °F - 33.8 °F 36% 29.83 in 10.0 mi NW 12.7 mph - N/A   Clear
12:15 PM 62.6 °F - 32.0 °F 32% 29.83 in 10.0 mi NNW 11.5 mph 16.1 mph N/A   Clear
12:55 PM 64.4 °F - 32.0 °F 30% 29.83 in 10.0 mi NW 13.8 mph 17.3 mph N/A   Clear
1:15 PM 62.6 °F - 33.8 °F 34% 29.84 in 10.0 mi NNW 13.8 mph - N/A   Clear
1:35 PM 60.8 °F - 33.8 °F 36% 29.84 in 10.0 mi NW 11.5 mph 16.1 mph N/A   Clear
1:55 PM 59.0 °F - 32.0 °F 36% 29.84 in 10.0 mi NW 13.8 mph - N/A   Clear
2:15 PM 59.0 °F - 33.8 °F 39% 29.85 in 10.0 mi NW 13.8 mph - N/A   Clear
2:35 PM 59.0 °F - 35.6 °F 42% 29.85 in 10.0 mi NW 13.8 mph - N/A   Clear
2:55 PM 59.0 °F - 35.6 °F 42% 29.86 in 10.0 mi NNW 12.7 mph - N/A   Clear
3:15 PM 59.0 °F - 35.6 °F 42% 29.86 in 10.0 mi NW 12.7 mph - N/A   Clear
3:55 PM 59.0 °F - 35.6 °F 42% 29.87 in 10.0 mi NNW 11.5 mph - N/A   Clear
4:15 PM 57.2 °F - 35.6 °F 44% 29.87 in 10.0 mi NNW 9.2 mph - N/A   Clear
4:35 PM 57.2 °F - 35.6 °F 44% 29.88 in 10.0 mi North 8.1 mph - N/A   Clear
4:55 PM 57.2 °F - 35.6 °F 44% 29.89 in 10.0 mi NW 6.9 mph - N/A   Clear
5:15 PM 55.4 °F - 35.6 °F 47% 29.89 in 10.0 mi WNW 4.6 mph - N/A   Clear
5:35 PM 55.4 °F - 35.6 °F 47% 29.90 in 9.0 mi WNW 5.8 mph - N/A   Clear
6:55 PM 50.0 °F - 35.6 °F 58% 29.92 in 10.0 mi NW 3.5 mph - N/A   Mostly Cloudy
7:15 PM 48.2 °F - 35.6 °F 62% 29.93 in 10.0 mi West 3.5 mph - N/A   Mostly Cloudy
7:35 PM 44.6 °F - 33.8 °F 66% 29.93 in 10.0 mi Calm Calm - N/A   Scattered Clouds
8:15 PM 39.2 °F 37.0 °F 32.0 °F 75% 29.94 in 10.0 mi SSW 3.5 mph - N/A   Overcast
8:35 PM 41.0 °F - 33.8 °F 76% 29.95 in 10.0 mi Calm Calm - N/A   Overcast
8:55 PM 42.8 °F 41.1 °F 35.6 °F 76% 29.95 in 10.0 mi SSW 3.5 mph - N/A   Overcast
9:15 PM 44.6 °F 42.2 °F 35.6 °F 71% 29.96 in 10.0 mi South 4.6 mph - N/A   Overcast
9:55 PM 46.4 °F - 37.4 °F 71% 29.97 in 10.0 mi Calm Calm - N/A   Overcast
10:15 PM 46.4 °F - 37.4 °F 71% 29.97 in 10.0 mi Calm Calm - N/A   Overcast
10:35 PM 42.8 °F 41.1 °F 35.6 °F 76% 29.97 in 10.0 mi ESE 3.5 mph - N/A   Scattered Clouds
11:15 PM 39.2 °F - 35.6 °F 87% 29.97 in 10.0 mi Calm Calm - N/A   Clear
11:35 PM 37.4 °F 34.9 °F 35.6 °F 93% 29.97 in 10.0 mi South 3.5 mph - N/A   Clear
11:55 PM 37.4 °F 33.8 °F 33.8 °F 87% 29.97 in 10.0 mi SSW 4.6 mph - N/A   Clear